Tiempo cada hora Abashevo

Hoy, 29 Octubre, Jueves

Tiempo Temperatura Precipitaciones Viento Presión Humedad
00:00 -1°C° 0 mm 3 mps 772 mmHg 72%
01:00 -1°C° 0 mm 3 mps 772 mmHg 73%
02:00 -1°C° 0 mm 3 mps 772 mmHg 73%
03:00 -1°C° 0 mm 2 mps 772 mmHg 76%
04:00 -1°C° 0 mm 2 mps 772 mmHg 75%
05:00 -1°C° 0 mm 2 mps 771 mmHg 75%
06:00 -1°C° 0 mm 2 mps 771 mmHg 75%
07:00 +1°C° 0 mm 2 mps 771 mmHg 70%
08:00 +2°C° 0 mm 2 mps 771 mmHg 66%
09:00 +2°C° 0 mm 3 mps 771 mmHg 60%
10:00 +3°C° 0 mm 3 mps 771 mmHg 57%
11:00 +4°C° 0 mm 3 mps 771 mmHg 54%
12:00 +5°C° 0 mm 3 mps 770 mmHg 50%
13:00 +5°C° 0 mm 3 mps 770 mmHg 52%
14:00 +7°C° 0 mm 3 mps 770 mmHg 54%
15:00 +7°C° 0 mm 3 mps 770 mmHg 56%
16:00 +4°C° 0 mm 3 mps 769 mmHg 61%
17:00 +3°C° 0 mm 3 mps 769 mmHg 66%
18:00 +2°C° 0 mm 3 mps 769 mmHg 70%
19:00 +2°C° 0 mm 3 mps 769 mmHg 73%
20:00 +2°C° 0 mm 3 mps 769 mmHg 76%
21:00 +1°C° 0 mm 4 mps 769 mmHg 79%
22:00 +1°C° 0 mm 4 mps 768 mmHg 77%
23:00 +1°C° 0 mm 4 mps 768 mmHg 76%

Mañana, 30 Octubre, Viernes

Tiempo Temperatura Precipitaciones Viento Presión Humedad
00:00 +1°C° 0 mm 4 mps 767 mmHg 74%
01:00 +2°C° 0 mm 3 mps 767 mmHg 75%
02:00 +2°C° 0 mm 3 mps 767 mmHg 77%
03:00 +2°C° 0 mm 3 mps 767 mmHg 78%
04:00 +2°C° 0 mm 3 mps 767 mmHg 79%
05:00 +2°C° 0 mm 3 mps 766 mmHg 80%
06:00 +2°C° 0 mm 3 mps 766 mmHg 81%
07:00 +2°C° 0 mm 3 mps 766 mmHg 77%
08:00 +3°C° 0 mm 4 mps 766 mmHg 74%
09:00 +4°C° 0 mm 4 mps 766 mmHg 70%
10:00 +5°C° 0 mm 4 mps 766 mmHg 66%
11:00 +6°C° 0 mm 4 mps 765 mmHg 61%
12:00 +7°C° 0 mm 5 mps 765 mmHg 57%
13:00 +7°C° 0 mm 4 mps 765 mmHg 57%
14:00 +7°C° 0 mm 4 mps 764 mmHg 57%
15:00 +7°C° 0 mm 4 mps 764 mmHg 57%
16:00 +6°C° 0 mm 4 mps 764 mmHg 60%
17:00 +6°C° 0 mm 4 mps 764 mmHg 63%
18:00 +5°C° 0 mm 4 mps 763 mmHg 65%
19:00 +5°C° 0 mm 4 mps 763 mmHg 66%
20:00 +5°C° 0 mm 3 mps 763 mmHg 66%
21:00 +4°C° 0 mm 3 mps 763 mmHg 67%
22:00 +5°C° 0.1 mm 3 mps 763 mmHg 67%
23:00 +6°C° 0.1 mm 2 mps 762 mmHg 67%

Pasado mañana, 31 Octubre, Sábado

Tiempo Temperatura Precipitaciones Viento Presión Humedad
00:00 +6°C° 0.1 mm 2 mps 762 mmHg 68%
01:00 +6°C° 0 mm 2 mps 762 mmHg 67%
02:00 +6°C° 0 mm 2 mps 762 mmHg 65%
03:00 +6°C° 0 mm 2 mps 761 mmHg 64%
04:00 +5°C° 0 mm 2 mps 761 mmHg 64%
05:00 +4°C° 0 mm 3 mps 761 mmHg 63%
06:00 +4°C° 0 mm 3 mps 761 mmHg 62%
07:00 +5°C° 0 mm 3 mps 761 mmHg 60%
08:00 +5°C° 0 mm 3 mps 761 mmHg 58%
09:00 +7°C° 0 mm 3 mps 761 mmHg 56%
10:00 +7°C° 0.1 mm 2 mps 761 mmHg 57%
11:00 +7°C° 0.1 mm 2 mps 761 mmHg 58%
12:00 +7°C° 0.1 mm 2 mps 761 mmHg 59%
13:00 +7°C° 0 mm 2 mps 761 mmHg 58%
14:00 +8°C° 0 mm 2 mps 761 mmHg 58%
15:00 +8°C° 0 mm 2 mps 761 mmHg 57%
16:00 +8°C° 0.1 mm 2 mps 761 mmHg 62%
17:00 +7°C° 0.1 mm 2 mps 761 mmHg 67%
18:00 +7°C° 0.1 mm 2 mps 761 mmHg 73%
19:00 +8°C° 0.3 mm 1 mps 761 mmHg 77%
20:00 +8°C° 0.3 mm 1 mps 761 mmHg 82%
21:00 +7°C° 0.3 mm 1 mps 761 mmHg 86%
22:00 +6°C° 0.2 mm 0 mps 761 mmHg 87%
23:00 +6°C° 0.2 mm 0 mps 762 mmHg 88%

1 Noviembre, Domingo

Tiempo Temperatura Precipitaciones Viento Presión Humedad
00:00 +7°C° 0.2 mm 0 mps 762 mmHg 89%
01:00 +8°C° 0 mm 1 mps 762 mmHg 89%
02:00 +8°C° 0 mm 1 mps 762 mmHg 88%
03:00 +7°C° 0 mm 2 mps 762 mmHg 88%
04:00 +6°C° 0 mm 2 mps 763 mmHg 86%
05:00 +6°C° 0 mm 2 mps 763 mmHg 84%
06:00 +6°C° 0 mm 2 mps 763 mmHg 82%
07:00 +7°C° 0 mm 2 mps 763 mmHg 81%
08:00 +7°C° 0 mm 2 mps 763 mmHg 81%
09:00 +7°C° 0 mm 3 mps 764 mmHg 80%
10:00 +8°C° 0 mm 3 mps 764 mmHg 77%
11:00 +8°C° 0 mm 4 mps 764 mmHg 75%
12:00 +8°C° 0 mm 4 mps 764 mmHg 72%
13:00 +8°C° 0 mm 4 mps 764 mmHg 73%
14:00 +8°C° 0 mm 4 mps 764 mmHg 74%
15:00 +9°C° 0 mm 3 mps 764 mmHg 75%
16:00 +8°C° 0 mm 3 mps 764 mmHg 79%
17:00 +7°C° 0 mm 4 mps 765 mmHg 83%
18:00 +6°C° 0 mm 4 mps 765 mmHg 87%
19:00 +5°C° 0 mm 4 mps 765 mmHg 88%
20:00 +5°C° 0 mm 4 mps 765 mmHg 89%
21:00 +5°C° 0 mm 4 mps 766 mmHg 90%
22:00 +5°C° 0 mm 4 mps 766 mmHg 89%
23:00 +5°C° 0 mm 4 mps 766 mmHg 89%

2 Noviembre, Lunes

Tiempo Temperatura Precipitaciones Viento Presión Humedad
00:00 +5°C° 0 mm 4 mps 766 mmHg 89%
01:00 +5°C° 0 mm 4 mps 766 mmHg 88%
02:00 +5°C° 0 mm 5 mps 766 mmHg 87%
03:00 +5°C° 0 mm 5 mps 766 mmHg 86%
04:00 +3°C° 0 mm 5 mps 766 mmHg 87%
05:00 +4°C° 0 mm 4 mps 766 mmHg 89%
06:00 +4°C° 0 mm 4 mps 766 mmHg 90%
07:00 +4°C° 0 mm 4 mps 767 mmHg 86%
08:00 +5°C° 0 mm 4 mps 767 mmHg 83%
09:00 +5°C° 0 mm 4 mps 767 mmHg 80%
10:00 +6°C° 0 mm 4 mps 767 mmHg 76%
11:00 +7°C° 0 mm 4 mps 767 mmHg 72%
12:00 +7°C° 0 mm 4 mps 767 mmHg 69%
13:00 +7°C° 0 mm 4 mps 767 mmHg 68%
14:00 +7°C° 0 mm 4 mps 767 mmHg 68%
15:00 +7°C° 0 mm 4 mps 767 mmHg 68%
16:00 +6°C° 0 mm 4 mps 767 mmHg 71%
17:00 +5°C° 0 mm 4 mps 767 mmHg 73%
18:00 +4°C° 0 mm 3 mps 767 mmHg 76%
19:00 +4°C° 0 mm 3 mps 767 mmHg 76%
20:00 +4°C° 0 mm 3 mps 768 mmHg 76%
21:00 +3°C° 0 mm 3 mps 768 mmHg 76%
22:00 +3°C° 0 mm 3 mps 768 mmHg 76%
23:00 +3°C° 0 mm 3 mps 768 mmHg 77%

3 Noviembre, Martes

Tiempo Temperatura Precipitaciones Viento Presión Humedad
00:00 +3°C° 0 mm 2 mps 768 mmHg 77%
01:00 +3°C° 0 mm 2 mps 768 mmHg 78%
02:00 +3°C° 0 mm 2 mps 769 mmHg 79%
03:00 +3°C° 0 mm 2 mps 769 mmHg 80%
04:00 +3°C° 0 mm 2 mps 769 mmHg 81%
05:00 +2°C° 0 mm 2 mps 769 mmHg 82%
06:00 +2°C° 0 mm 2 mps 769 mmHg 83%
07:00 +3°C° 0 mm 2 mps 769 mmHg 80%
08:00 +4°C° 0 mm 2 mps 770 mmHg 76%
09:00 +5°C° 0 mm 2 mps 770 mmHg 73%
10:00 +6°C° 0 mm 2 mps 770 mmHg 69%
11:00 +8°C° 0 mm 2 mps 770 mmHg 65%
12:00 +9°C° 0 mm 2 mps 770 mmHg 62%
13:00 +10°C° 0 mm 1 mps 770 mmHg 63%
14:00 +10°C° 0 mm 1 mps 770 mmHg 64%
15:00 +11°C° 0 mm 1 mps 770 mmHg 65%
16:00 +10°C° 0 mm 1 mps 770 mmHg 70%
17:00 +9°C° 0 mm 1 mps 770 mmHg 75%
18:00 +8°C° 0 mm 1 mps 770 mmHg 79%
19:00 +7°C° 0 mm 1 mps 771 mmHg 81%
20:00 +7°C° 0 mm 1 mps 771 mmHg 83%
21:00 +7°C° 0 mm 1 mps 771 mmHg 85%
22:00 +7°C° 0 mm 1 mps 771 mmHg 85%
23:00 +7°C° 0 mm 1 mps 771 mmHg 85%
Mostrar más

Necesitamos Su Consentimiento

Meteoprog y nuestros Proveedores de Servicios pueden almacenar y acceder a sus datos personales como cookies, identificadores de dispositivo u otras tecnologías similares de su dispositivo y procesar dichos datos para personalizar contenido y anuncios, además de ofrecer funciones de redes sociales y analizar el tráfico.

  • Almacenar y/o acceder a información en su dispositivo

    Se puede almacenar o acceder a cookies, identificadores de dispositivo u otra información de su dispositivo para los fines anteriormente indicados.

  • Anuncios y contenido personalizados, medición de anuncios y contenido, percepciones del público, y desarrollo de productos

    Los anuncios y el contenido pueden personalizarse en base a su perfil. Se pueden añadir más datos para personalizar mejor los anuncios y contenidos. Se puede medir el rendimiento de los anuncios y contenidos. Se puede obtener la percepción sobre el público que ha visto los anuncios y contenidos. Dichos datos pueden usarse para desarrollar o mejorar la experiencia del usuario, sistemas y software.

Al hacer clic en ‘Estoy De Acuerdo’ usted permitirá el uso de las cookies, identificadores de dispositivo, balizas web u otras tecnologías similares indicadas. Su configuración puede cambiarse desde el navegador de su dispositivo.

Para ciertos fines, los intereses legítimos pueden ser considerados por encima del consentimiento. Puede leer más sobre ello en nuestra Política de Privacidad y Cookies.